#timestamp,LO_Frequency,Hit,StdDev 
1583049815.6,286046998.0,P
1583049835.5,286046997.5,P
1583049855.3,286046997.8,P
1583049875.1,286046997.2,Y
1583049895.9,286046998.3,P
1583049915.7,286046998.3,P
1583049935.6,286046999.5,N
1583049955.4,286046996.7,Y
1583049975.2,286046998.8,P
1583049995.1,286046998.8,P
1583049996.0,286046998.8,P
1583050015.8,286047000.6,Y
1583050035.7,286047000.0,P
1583050055.5,286047002.6,P
1583050075.3,286047002.6,N
1583050095.2,286046999.8,N
1583050115.9,286046999.7,N
1583050135.7,286047002.6,N
1583050155.6,286047001.6,N
1583050175.4,286047001.9,N
1583050195.2,286047001.9,N
1583050215.1,286047004.0,N
1583050216.0,286047004.0,N
1583050235.8,286047002.2,N
1583050255.7,286047001.7,N
1583050275.5,286046999.7,N
1583050295.3,286046999.7,N
1583050315.2,286047000.3,N
1583050335.0,286046999.9,N
1583050335.9,286046999.9,N
1583050355.8,286046999.7,N
1583050375.6,286047002.7,N
1583050395.4,286047002.4,N
1583050415.3,286047002.3,N
1583050435.1,286046999.9,N
1583050455.8,286047002.0,N
1583050475.7,286047002.3,N
1583050495.5,286047002.3,N
1583050515.3,286047002.6,N
1583050535.2,286047002.7,N
1583050555.0,286046999.7,N
1583050555.9,286046999.7,N
1583050575.8,286046999.9,N
1583050595.6,286047000.3,N
1583050615.4,286047001.0,N
1583050635.3,286046998.7,N
1583050655.1,286046999.0,N
1583050675.9,286046998.7,N
1583050695.7,286046999.3,N
1583050715.5,286046996.6,N
1583050735.4,286046999.6,N
1583050755.2,286046998.4,N
1583050775.0,286046998.2,N
1583050775.9,286046998.2,N
1583050795.8,286046998.6,N
1583050815.6,286046998.4,N
1583050835.5,286046998.9,N
1583050855.3,286046996.7,N
1583050875.1,286046997.0,N
1583050895.9,286046997.7,N
1583050915.7,286046998.0,N
1583050935.6,286046997.9,N
1583050955.4,286046995.3,N
1583050975.2,286046997.2,N
1583050995.1,286046997.8,N
1583050996.0,286046997.8,N
1583051015.8,286046995.9,N
1583051035.7,286046995.1,N
1583051055.5,286046995.9,N
1583051075.3,286046996.0,N
1583051095.2,286046995.2,Y
1583051115.0,286046999.9,P
1583051115.9,286046999.9,N
1583051135.8,286047003.7,P
1583051155.6,286047003.5,N
1583051175.4,286047003.6,N
1583051195.3,286047005.6,N
1583051215.1,286047005.8,N
1583051235.8,286047003.9,N
1583051255.7,286047001.5,N
1583051275.5,286047000.4,N
1583051295.4,286047000.8,N
1583051315.2,286046996.9,N
1583051335.0,286046997.9,N
1583051335.9,286046997.9,N
1583051355.8,286046997.8,N
1583051375.6,286046995.4,N
1583051395.4,286046995.8,N
1583051415.3,286046996.4,N
1583051435.1,286046994.3,N
1583051455.9,286046993.0,N
1583051475.7,286046990.1,N
1583051495.5,286046990.8,N
1583051515.4,286046989.1,N
1583051535.2,286046989.8,N
1583051555.0,286046987.0,N
1583051556.0,286046987.0,N
1583051575.8,286046987.9,N
1583051595.6,286046986.3,N
1583051615.5,286046985.4,N
1583051635.3,286046985.6,N
1583051655.1,286046986.6,N
1583051675.9,286046986.8,N
1583051695.7,286046983.7,N
1583051715.6,286046984.8,N
1583051735.4,286046982.5,N
1583051755.2,286046982.7,N
1583051775.1,286046982.5,N
1583051776.0,286046982.5,N
1583051795.8,286046982.6,N
1583051815.6,286046984.7,N
1583051835.5,286046983.6,N
1583051855.3,286046980.1,Y
1583051875.2,286046989.3,P
1583051895.9,286046985.3,P
1583051915.7,286046985.7,P
1583051935.6,286046984.5,Y
1583051955.4,286046996.1,P
1583051975.3,286046994.6,N
1583051995.1,286046992.1,N
1583051996.0,286046992.1,N
1583052015.8,286046994.7,N
1583052035.7,286046994.5,N
1583052055.5,286046993.0,N
1583052075.3,286046993.1,N
1583052095.2,286046989.0,Y
1583052115.0,286046993.4,P
1583052115.9,286046993.4,P
1583052135.8,286046992.2,P
1583052155.6,286046992.8,Y
1583052175.4,286046999.1,P
1583052195.3,286046997.2,N
1583052215.1,286046997.1,N
1583052235.9,286046995.4,N
1583052255.7,286046995.4,N
1583052275.5,286046995.4,N
1583052295.4,286046996.0,N
1583052315.2,286046994.4,Y
1583052335.1,286046997.5,P
1583052336.0,286046997.5,P
1583052355.8,286046994.9,P
1583052375.6,286046995.0,Y
1583052395.5,286046999.4,P
1583052415.3,286046997.2,N
1583052435.1,286046997.9,N
1583052455.9,286046994.9,Y
1583052475.7,286046996.5,P
1583052495.6,286046996.6,P
1583052515.4,286046996.9,P
1583052535.2,286046995.1,Y
1583052555